DW0487 Weather Reports


Display with metric or nautical units.
time (UTC)temp
F
wind
direction
speed
MPH
gust
MPH
rain 1hr
in
rain 24hr
in
rain mn
in
humidity
%
barometer
mb
20221201070049 32 360 0.0 0.0 0.00 0.00 0.00 95 1021.4
20221201064551 32 360 0.0 4.0 0.00 0.00 0.00 95 1021.3
20221201063055 32 9 1.0 5.0 0.00 0.00 0.00 95 1021.4
20221201061543 32 27 0.0 4.0 0.00 0.00 0.00 96 1021.2
20221201060042 32 15 2.0 5.0 0.00 0.00 0.00 96 1021.1
20221201054541 32 41 2.0 5.0 0.00 0.00 0.00 97 1020.8
20221201053040 32 17 1.0 4.0 0.00 0.00 0.00 97 1020.8
20221201051539 32 31 0.0 4.0 0.00 0.00 0.00 97 1020.8
20221201050037 32 33 0.0 3.0 0.00 0.00 0.00 97 1020.7
20221201044535 32 50 0.0 0.0 0.00 0.00 0.00 97 1020.7
20221201043038 32 30 0.0 0.0 0.00 0.00 0.00 97 1020.7
20221201041537 32 30 0.0 0.0 0.00 0.00 0.00 97 1020.7
20221201040046 32 30 0.0 0.0 0.00 0.00 0.00 97 1020.7
20221201034532 32 30 0.0 2.0 0.00 0.00 0.00 97 1020.7
20221201033035 32 55 0.0 0.0 0.00 0.00 0.00 97 1020.7
20221201031533 32 57 0.0 1.0 0.00 0.00 0.00 97 1020.7
20221201030039 32 37 0.0 4.0 0.00 0.00 0.00 97 1020.8
20221201024532 32 29 1.0 4.0 0.00 0.00 0.00 96 1020.8
20221201023036 33 30 0.0 1.0 0.00 0.00 0.00 96 1020.8
20221201021529 33 29 0.0 3.0 0.00 0.00 0.00 96 1020.8
20221201020026 32 30 0.0 0.0 0.00 0.00 0.00 96 1020.8
20221201014525 32 18 0.0 0.0 0.00 0.00 0.00 96 1020.9
20221201013025 32 25 0.0 1.0 0.00 0.00 0.00 96 1020.9
20221201011524 33 24 1.0 3.0 0.00 0.00 0.00 96 1020.9
20221201010022 33 46 0.0 2.0 0.00 0.00 0.00 96 1020.8
20221201004530 33 45 0.0 1.0 0.00 0.00 0.00 97 1020.8
20221201003021 33 83 0.0 0.0 0.00 0.00 0.00 97 1020.8
20221201001521 33 83 0.0 0.0 0.00 0.00 0.00 96 1020.8
20221201000019 33 21 0.0 0.0 0.00 0.01 0.00 96 1020.8
20221130234521 33 19 0.0 3.0 0.00 0.01 0.00 96 1021.0
20221130233016 33 5 0.0 0.0 0.00 0.01 0.00 96 1021.1
20221130231517 33 41 0.0 3.0 0.00 0.01 0.00 96 1021.2
20221130230012 33 55 0.0 4.0 0.00 0.01 0.01 96 1021.4
20221130224512 33 74 0.0 3.0 0.00 0.01 0.01 96 1021.0
20221130223012 33 26 0.0 2.0 0.00 0.01 0.01 96 1021.0
20221130221515 33 13 1.0 3.0 0.00 0.01 0.01 96 1021.2
20221130220024 33 44 2.0 4.0 0.00 0.02 0.01 96 1021.4
20221130214509 33 67 2.0 4.0 0.00 0.02 0.01 96 1021.3
20221130213008 33 56 0.0 0.0 0.00 0.02 0.01 96 1021.1
20221130211507 33 56 0.0 0.0 0.00 0.02 0.01 96 1021.1
20221130210008 33 56 0.0 0.0 0.00 0.02 0.01 96 1021.1
20221130204506 33 56 0.0 1.0 0.00 0.02 0.01 96 1021.1
20221130203013 33 56 0.0 0.0 0.00 0.02 0.01 96 1021.0
20221130201515 33 55 0.0 3.0 0.00 0.02 0.01 96 1021.1
20221130200006 33 60 1.0 4.0 0.00 0.02 0.01 96 1021.2
20221130194504 33 51 0.0 1.0 0.00 0.02 0.01 96 1021.1
20221130193021 33 34 1.0 4.0 0.00 0.02 0.01 96 1021.0
20221130191507 33 33 1.0 5.0 0.00 0.02 0.01 96 1020.9
20221130190016 33 31 2.0 4.0 0.00 0.04 0.01 96 1020.9
20221130184520 33 40 2.0 4.0 0.00 0.04 0.01 96 1020.9
20221130183023 33 46 0.0 2.0 0.00 0.04 0.01 96 1020.8
20221130181512 33 36 1.0 5.0 0.00 0.04 0.01 96 1020.7
20221130180015 33 40 0.0 3.0 0.00 0.05 0.01 96 1020.6
20221130174511 33 54 1.0 2.0 0.00 0.05 0.01 96 1020.6
20221130173012 34 38 0.0 0.0 0.00 0.05 0.01 96 1020.5
20221130171518 33 38 0.0 1.0 0.00 0.05 0.01 96 1020.6
20221130170011 34 66 0.0 2.0 0.00 0.05 0.01 96 1020.6
20221130164510 34 70 0.0 0.0 0.00 0.05 0.01 96 1020.5
20221130163012 34 70 0.0 2.0 0.00 0.05 0.01 96 1020.6
20221130161523 34 55 0.0 0.0 0.00 0.05 0.01 96 1020.5
20221130160008 34 42 0.0 3.0 0.00 0.09 0.01 96 1020.3
20221130154509 34 27 0.0 2.0 0.00 0.09 0.01 96 1020.2
20221130153005 34 25 2.0 4.0 0.00 0.09 0.01 96 1020.2
20221130151505 34 34 1.0 4.0 0.00 0.09 0.01 96 1020.3
20221130150007 34 59 2.0 4.0 0.00 0.11 0.01 96 1020.2
20221130144514 34 63 0.0 3.0 0.00 0.11 0.01 96 1020.1
20221130143004 35 69 2.0 5.0 0.00 0.11 0.01 95 1020.1
20221130141503 35 45 2.0 5.0 0.00 0.11 0.01 95 1020.0
20221130140007 35 67 0.0 5.0 0.00 0.14 0.01 95 1020.0
20221130134503 35 63 1.0 5.0 0.00 0.14 0.01 95 1020.0
20221130133001 35 67 0.0 4.0 0.00 0.14 0.01 95 1020.0
20221130131501 35 70 2.0 5.0 0.00 0.14 0.01 94 1020.0
20221130130004 35 30 2.0 4.0 0.00 0.18 0.01 94 1020.0
20221130124601 36 51 2.0 6.0 0.00 0.18 0.01 93 1020.0
20221130123101 36 11 2.0 5.0 0.00 0.18 0.01 93 1020.0
20221130121601 36 37 2.0 4.0 0.00 0.18 0.01 94 1020.0
20221130120104 36 73 0.0 1.0 0.00 0.18 0.01 93 1020.0
20221130114606 36 42 0.0 4.0 0.00 0.23 0.01 93 1020.0
20221130113103 36 28 1.0 4.0 0.00 0.23 0.01 92 1020.0
20221130111604 36 49 0.0 1.0 0.00 0.23 0.01 92 1020.0
20221130110058 36 44 0.0 4.0 0.00 0.23 0.01 93 1020.1
20221130104556 36 69 0.0 0.0 0.00 0.27 0.01 95 1020.3
20221130103055 36 23 0.0 2.0 0.00 0.27 0.01 94 1020.3
20221130101600 36 51 0.0 1.0 0.00 0.27 0.01 97 1020.3
20221130100105 35 51 0.0 0.0 0.00 0.27 0.01 97 1020.4
20221130094550 35 49 1.0 2.0 0.00 0.31 0.01 97 1020.6
20221130093052 35 50 0.0 0.0 0.00 0.31 0.01 98 1020.7
20221130091556 35 39 0.0 2.0 0.00 0.31 0.01 98 1020.6
20221130090049 35 41 0.0 3.0 0.00 0.31 0.01 98 1020.4
20221130084601 35 31 0.0 3.0 0.00 0.35 0.01 98 1020.4
20221130083049 34 53 0.0 0.0 0.00 0.35 0.01 98 1020.5
20221130081542 34 25 0.0 3.0 0.00 0.35 0.01 98 1020.4
20221130080045 34 47 0.0 3.0 0.00 0.35 0.01 97 1020.4
20221130074539 34 68 0.0 5.0 0.00 0.37 0.01 97 1020.2
20221130073041 34 53 1.0 3.0 0.00 0.37 0.01 97 1020.3
20221130071534 34 30 0.0 3.0 0.00 0.37 0.01 97 1020.2